[[{"header":{"parameterUnit":"m.s-1","parameterCategory":2,"la1":30.2992,"la2":30.254,"lo1":-89.0895,"lo2":-89.0443,"dy":0.0025,"dx":0.0025,"nx":19,"ny":19,"refTime":"2026-04-08T09:00:00:Z","depth":"0","parameterNumber":2,"parameterNumberName":"U-component_of_CURRENTS"},"data":[0,0,0,-0.3226,-0.3228,-0.3279,-0.3279,-0.329,-0.329,0,0,0,0,0,0,0,0,0,0,0,-0.3194,-0.3194,-0.3226,-0.3228,-0.3279,-0.3279,-0.329,-0.329,0,0,0,0,0,0,0,0,0,0,0,-0.3194,-0.3194,-0.3195,-0.3228,-0.3279,-0.3279,-0.329,-0.3262,0,0,0,0,0,0,0,0,0,0,-0.3217,-0.3189,-0.3194,-0.3195,-0.3228,-0.3279,-0.3279,-0.3261,-0.3264,-0.3256,0,-0.3265,0,-0.3289,-0.3291,-0.3291,0,0,0,-0.3214,-0.3186,-0.3217,-0.3195,-0.3229,-0.3279,-0.3252,-0.3263,-0.3266,-0.3259,-0.3265,-0.3267,-0.329,-0.3291,-0.3291,-0.334,-0.334,0,0,-0.3212,-0.3186,-0.3215,-0.3219,-0.3243,-0.3251,-0.3254,-0.3265,-0.3257,-0.3266,-0.3268,-0.329,-0.3291,-0.3291,-0.3339,-0.334,0,0,0,-0.3212,-0.3184,-0.3215,-0.3218,-0.3238,-0.3252,-0.3256,-0.3256,-0.3271,-0.3268,-0.329,-0.3291,-0.3292,-0.3339,-0.334,-0.3385,0,0,0,-0.321,-0.3186,-0.3213,-0.3196,-0.3238,-0.3253,-0.3246,-0.327,-0.3273,-0.329,-0.3291,-0.3292,-0.3338,-0.3339,-0.3383,-0.3383,0,0,0,-0.3192,-0.3184,-0.3194,-0.3195,-0.3227,-0.3254,-0.3269,-0.3271,-0.3287,-0.3291,-0.3292,-0.3338,-0.3339,-0.3381,-0.338,-0.3384,0,0,0,-0.3158,-0.3179,-0.3193,-0.3231,-0.3227,-0.3299,-0.3269,-0.3304,-0.3313,-0.3291,-0.3338,-0.3339,-0.338,-0.3378,-0.3383,-0.3282,-0.3281,0,0,-0.3173,-0.318,-0.3209,-0.3225,-0.3297,-0.3291,-0.3355,-0.3345,-0.3324,-0.3327,-0.3329,-0.3384,-0.338,-0.3384,-0.3344,-0.334,0,0,0,-0.3208,-0.3219,-0.3248,-0.329,-0.3345,-0.3377,-0.3387,-0.3386,-0.3386,-0.3337,-0.3393,-0.3388,-0.3389,-0.3326,-0.3324,-0.3277,-0.3344,-0.3344,-0.3344,-0.3154,-0.3217,-0.326,-0.3333,-0.3381,-0.3436,-0.3455,-0.345,-0.3437,-0.3443,-0.3433,-0.3476,-0.3411,-0.3408,-0.3362,-0.3453,-0.3453,-0.3453,-0.3453,-0.3153,-0.3167,-0.3254,-0.3312,-0.3379,-0.3425,-0.3497,-0.3498,-0.3511,-0.3488,-0.3488,-0.3387,-0.3407,-0.336,-0.3456,-0.3456,-0.3455,-0.3455,-0.3455,-0.3084,-0.3097,-0.3151,-0.3234,-0.3309,-0.3401,-0.3455,-0.3515,-0.3524,-0.354,-0.3446,-0.3443,-0.3391,-0.3535,-0.3535,-0.3535,-0.3535,-0.3535,-0.3535,-0.2964,-0.3029,-0.3041,-0.3153,-0.3191,-0.3286,-0.3426,-0.3462,-0.3484,-0.3471,-0.347,-0.3394,-0.35,-0.3485,-0.3536,-0.3536,-0.3536,-0.3536,-0.3536,-0.2835,-0.2873,-0.2889,-0.2922,-0.3039,-0.3069,-0.3268,-0.3342,-0.3399,-0.3379,-0.3325,-0.343,-0.3396,-0.3396,-0.3378,-0.3399,-0.3399,-0.3399,-0.3399,-0.2709,-0.2747,-0.2719,-0.2746,-0.2823,-0.2951,-0.295,-0.307,-0.3172,-0.3163,-0.3247,-0.3209,-0.3217,-0.3171,-0.3176,-0.3154,-0.3117,-0.3117,-0.3117,-0.2586,-0.2616,-0.2536,-0.2611,-0.2701,-0.2773,-0.2721,-0.2824,-0.2998,-0.3106,-0.3207,-0.3218,-0.3168,-0.3183,-0.3113,-0.3124,-0.3088,0,0]},{"header":{"parameterUnit":"m.s-1","parameterCategory":2,"la1":30.2992,"la2":30.254,"lo1":-89.0895,"lo2":-89.0443,"dy":0.0025,"dx":0.0025,"nx":19,"ny":19,"refTime":"2026-04-08T09:00:00:Z","depth":"0","parameterNumber":3,"parameterNumberName":"V-component_of_CURRENTS"},"data":[0,0,0,-0.0496,-0.0494,-0.0373,-0.0372,-0.0167,-0.0165,0,0,0,0,0,0,0,0,0,0,0,-0.054,-0.0539,-0.0496,-0.0494,-0.0373,-0.0372,-0.0167,-0.0165,0,0,0,0,0,0,0,0,0,0,0,-0.054,-0.054,-0.0539,-0.0493,-0.0373,-0.0372,-0.0168,-0.0266,0,0,0,0,0,0,0,0,0,0,-0.0387,-0.045,-0.054,-0.0539,-0.0493,-0.0373,-0.0372,-0.0271,-0.026,-0.0215,0,-0.0214,0,-0.0193,-0.0153,-0.0152,0,0,0,-0.047,-0.046,-0.0425,-0.0539,-0.0492,-0.0373,-0.0421,-0.0265,-0.0252,-0.02,-0.0211,-0.0203,-0.0189,-0.0152,-0.0151,-0.0023,-0.0023,0,0,-0.0477,-0.0511,-0.0434,-0.0418,-0.0482,-0.0425,-0.0417,-0.0258,-0.0254,-0.021,-0.0199,-0.0186,-0.015,-0.0149,-0.0023,-0.0023,0,0,0,-0.0512,-0.0516,-0.0485,-0.0426,-0.0412,-0.0422,-0.0413,-0.026,-0.025,-0.0196,-0.0184,-0.0149,-0.0147,-0.0023,-0.0023,-0.0144,0,0,0,-0.0515,-0.0538,-0.0489,-0.0507,-0.0416,-0.0343,-0.042,-0.0261,-0.0243,-0.0185,-0.0149,-0.0145,-0.0023,-0.0023,-0.0141,-0.0196,0,0,0,-0.0542,-0.054,-0.0533,-0.0509,-0.0467,-0.0346,-0.0325,-0.0257,-0.0235,-0.0152,-0.0144,-0.0023,-0.0023,-0.0138,-0.019,-0.0157,0,0,0,-0.057,-0.06,-0.0534,-0.0559,-0.0469,-0.0422,-0.0326,-0.0273,-0.0213,-0.0148,-0.0023,-0.0023,-0.0137,-0.0186,-0.0155,-0.0072,-0.0076,0,0,-0.0631,-0.0608,-0.0623,-0.0562,-0.0562,-0.0436,-0.0404,-0.0285,-0.0192,-0.0067,-0.0064,-0.0142,-0.0189,-0.0157,-0.0074,-0.0079,0,0,0,-0.0657,-0.0674,-0.066,-0.0641,-0.0572,-0.0501,-0.0376,-0.0302,-0.0193,-0.0159,-0.0109,-0.0134,-0.011,-0.0053,-0.0057,0.0243,-0.0023,-0.0023,-0.0023,-0.0779,-0.0744,-0.0772,-0.0719,-0.0673,-0.0535,-0.0461,-0.033,-0.0243,-0.0211,-0.0209,-0.0235,-0.0178,-0.0179,0.0127,-0.0178,-0.0178,-0.0179,-0.0179,-0.0897,-0.0922,-0.0861,-0.0878,-0.0775,-0.0722,-0.0534,-0.0451,-0.032,-0.0268,-0.0237,-0.0155,-0.0189,0.0139,-0.0186,-0.0185,-0.0184,-0.0183,-0.0183,-0.0993,-0.1003,-0.1001,-0.1011,-0.0968,-0.0837,-0.0766,-0.0605,-0.0435,-0.0411,-0.0267,-0.0263,0.0011,-0.0378,-0.0379,-0.0379,-0.0379,-0.0379,-0.0379,-0.1096,-0.1093,-0.1154,-0.1145,-0.1149,-0.1091,-0.0892,-0.0769,-0.052,-0.0376,-0.0373,0.0055,-0.0294,-0.0304,-0.0381,-0.0381,-0.038,-0.038,-0.038,-0.1221,-0.1215,-0.1318,-0.1348,-0.1351,-0.1325,-0.1124,-0.0798,-0.0617,-0.047,0.0083,-0.0314,-0.0248,-0.0243,-0.0248,-0.0306,-0.0306,-0.0306,-0.0306,-0.1303,-0.1309,-0.1451,-0.1523,-0.1548,-0.1434,-0.1251,-0.0849,-0.0189,0.0173,0.0281,0.0371,0.0355,0.0462,0.0451,0.0464,0.0588,0.0589,0.0591,-0.1381,-0.142,-0.1535,-0.1601,-0.1639,-0.1535,-0.1332,-0.0813,0.0189,0.0657,0.0683,0.0645,0.0804,0.0754,0.0943,0.0904,0.0931,0,0]}],[{"header":{"parameterUnit":"m.s-1","parameterCategory":2,"la1":30.2992,"la2":30.254,"lo1":-89.0895,"lo2":-89.0443,"dy":0.0025,"dx":0.0025,"nx":19,"ny":19,"refTime":"2026-04-08T09:00:00:Z","depth":"2","parameterNumber":2,"parameterNumberName":"U-component_of_CURRENTS"},"data":[0,0,0,-0.3058,-0.306,-0.3121,-0.3121,-0.3137,-0.3138,0,0,0,0,0,0,0,0,0,0,0,-0.3024,-0.3024,-0.3058,-0.306,-0.3121,-0.3121,-0.3137,-0.3138,0,0,0,0,0,0,0,0,0,0,0,-0.3024,-0.3024,-0.3025,-0.306,-0.3121,-0.3121,-0.3137,-0.3104,0,0,0,0,0,0,0,0,0,0,-0.305,-0.3022,-0.3024,-0.3025,-0.3061,-0.3121,-0.3121,-0.3102,-0.3106,-0.3096,0,-0.3108,0,-0.3133,-0.3138,-0.3138,0,0,0,-0.3047,-0.302,-0.3051,-0.3025,-0.3061,-0.3121,-0.309,-0.3105,-0.3108,-0.31,-0.3108,-0.311,-0.3133,-0.3138,-0.3138,-0.3187,-0.3188,0,0,-0.3044,-0.3019,-0.3049,-0.3054,-0.308,-0.3088,-0.3092,-0.3107,-0.3101,-0.3108,-0.3111,-0.3134,-0.3138,-0.3139,-0.3187,-0.3187,0,0,0,-0.3043,-0.3017,-0.3048,-0.3052,-0.3074,-0.309,-0.3095,-0.31,-0.3115,-0.3111,-0.3134,-0.3139,-0.3139,-0.3186,-0.3187,-0.3236,0,0,0,-0.304,-0.3018,-0.3047,-0.3031,-0.3074,-0.3095,-0.3087,-0.3114,-0.3117,-0.3134,-0.3139,-0.3139,-0.3186,-0.3187,-0.3234,-0.3233,0,0,0,-0.3021,-0.3015,-0.3027,-0.3029,-0.3065,-0.3096,-0.3111,-0.3115,-0.3131,-0.3138,-0.3139,-0.3186,-0.3187,-0.3232,-0.323,-0.3235,0,0,0,-0.2987,-0.3011,-0.3026,-0.3065,-0.3065,-0.3138,-0.3111,-0.315,-0.3161,-0.3139,-0.3186,-0.3187,-0.3231,-0.3229,-0.3234,-0.3119,-0.3117,0,0,-0.3003,-0.3011,-0.3041,-0.3057,-0.313,-0.3128,-0.3193,-0.3189,-0.317,-0.3173,-0.3175,-0.3235,-0.323,-0.3235,-0.318,-0.3176,0,0,0,-0.3039,-0.3052,-0.308,-0.3123,-0.3178,-0.3213,-0.3228,-0.3229,-0.3234,-0.3185,-0.3242,-0.3238,-0.3239,-0.3167,-0.3165,-0.3192,-0.3192,-0.3192,-0.3192,-0.2991,-0.3051,-0.3095,-0.3166,-0.3214,-0.3273,-0.3295,-0.3294,-0.3282,-0.3292,-0.3285,-0.3329,-0.3254,-0.325,-0.3304,-0.3304,-0.3304,-0.3304,-0.3304,-0.2993,-0.3006,-0.3091,-0.315,-0.3217,-0.3266,-0.3338,-0.3343,-0.336,-0.334,-0.3339,-0.3231,-0.3249,-0.3309,-0.3308,-0.3307,-0.3307,-0.3306,-0.3306,-0.2929,-0.2941,-0.2995,-0.3077,-0.3155,-0.3247,-0.3302,-0.3365,-0.3377,-0.3394,-0.3291,-0.3288,-0.3336,-0.3392,-0.3392,-0.3392,-0.3392,-0.3392,-0.3392,-0.2815,-0.2878,-0.2893,-0.3004,-0.3043,-0.3138,-0.3278,-0.3314,-0.3333,-0.3317,-0.3316,-0.3357,-0.3354,-0.334,-0.3393,-0.3393,-0.3393,-0.3392,-0.3392,-0.2693,-0.2731,-0.2749,-0.2783,-0.2896,-0.291,-0.3117,-0.3184,-0.3243,-0.3219,-0.3268,-0.3271,-0.3233,-0.3234,-0.3216,-0.3233,-0.3233,-0.3233,-0.3233,-0.2573,-0.261,-0.2585,-0.2611,-0.2682,-0.2789,-0.2733,-0.2756,-0.2895,-0.2876,-0.289,-0.2836,-0.2851,-0.2789,-0.28,-0.2771,-0.2673,-0.2672,-0.2671,-0.2455,-0.2485,-0.2408,-0.2479,-0.2562,-0.2596,-0.2434,-0.226,-0.235,-0.2643,-0.2733,-0.3207,-0.3168,-0.3176,-0.3113,-0.3118,-0.3086,0,0]},{"header":{"parameterUnit":"m.s-1","parameterCategory":2,"la1":30.2992,"la2":30.254,"lo1":-89.0895,"lo2":-89.0443,"dy":0.0025,"dx":0.0025,"nx":19,"ny":19,"refTime":"2026-04-08T09:00:00:Z","depth":"2","parameterNumber":3,"parameterNumberName":"V-component_of_CURRENTS"},"data":[0,0,0,-0.048,-0.0478,-0.036,-0.036,-0.0159,-0.0158,0,0,0,0,0,0,0,0,0,0,0,-0.0522,-0.0522,-0.048,-0.0478,-0.0361,-0.036,-0.016,-0.0158,0,0,0,0,0,0,0,0,0,0,0,-0.0522,-0.0522,-0.0522,-0.0478,-0.0361,-0.036,-0.016,-0.0255,0,0,0,0,0,0,0,0,0,0,-0.0373,-0.0434,-0.0522,-0.0522,-0.0477,-0.0361,-0.036,-0.026,-0.0249,-0.0205,0,-0.0204,0,-0.0184,-0.0145,-0.0145,0,0,0,-0.0454,-0.0444,-0.041,-0.0522,-0.0476,-0.0361,-0.0407,-0.0254,-0.0242,-0.0191,-0.0202,-0.0194,-0.0181,-0.0144,-0.0143,-0.0017,-0.0017,0,0,-0.0461,-0.0494,-0.0419,-0.0403,-0.0466,-0.0411,-0.0404,-0.0247,-0.0243,-0.0201,-0.019,-0.0178,-0.0143,-0.0141,-0.0017,-0.0017,0,0,0,-0.0495,-0.0499,-0.047,-0.0411,-0.0398,-0.0408,-0.04,-0.025,-0.0241,-0.0187,-0.0175,-0.0142,-0.0139,-0.0017,-0.0017,-0.0137,0,0,0,-0.0498,-0.0521,-0.0473,-0.0491,-0.0402,-0.0331,-0.0406,-0.0251,-0.0233,-0.0176,-0.0142,-0.0138,-0.0017,-0.0017,-0.0134,-0.0188,0,0,0,-0.0524,-0.0523,-0.0516,-0.0493,-0.0452,-0.0334,-0.0314,-0.0247,-0.0226,-0.0144,-0.0137,-0.0017,-0.0017,-0.0131,-0.0182,-0.0151,0,0,0,-0.0551,-0.0581,-0.0517,-0.0541,-0.0454,-0.0408,-0.0315,-0.0263,-0.0204,-0.0141,-0.0017,-0.0017,-0.013,-0.0178,-0.0149,-0.0075,-0.008,0,0,-0.0611,-0.0589,-0.0603,-0.0544,-0.0544,-0.0422,-0.0391,-0.0274,-0.0183,-0.006,-0.0057,-0.0135,-0.0182,-0.0151,-0.0076,-0.0081,0,0,0,-0.0636,-0.0653,-0.0639,-0.0621,-0.0554,-0.0485,-0.0363,-0.0291,-0.0184,-0.0151,-0.0101,-0.0126,-0.0103,-0.0053,-0.0056,-0.0017,-0.0017,-0.0017,-0.0017,-0.0756,-0.0721,-0.0749,-0.0697,-0.0653,-0.0518,-0.0447,-0.0319,-0.0232,-0.0201,-0.02,-0.0226,-0.0175,-0.0177,-0.0168,-0.0169,-0.0169,-0.0169,-0.017,-0.0871,-0.0896,-0.0836,-0.0854,-0.0753,-0.0703,-0.0519,-0.0438,-0.031,-0.0257,-0.0228,-0.0152,-0.0188,-0.0178,-0.0177,-0.0176,-0.0175,-0.0174,-0.0173,-0.0965,-0.0975,-0.0973,-0.0984,-0.0943,-0.0817,-0.0748,-0.0591,-0.0423,-0.04,-0.0264,-0.0261,-0.0287,-0.0368,-0.0369,-0.0369,-0.0369,-0.0369,-0.0369,-0.1067,-0.1064,-0.1124,-0.1116,-0.1122,-0.1067,-0.0874,-0.0755,-0.0513,-0.0373,-0.037,-0.0291,-0.0285,-0.0295,-0.0371,-0.0371,-0.037,-0.037,-0.037,-0.1189,-0.1183,-0.1286,-0.1317,-0.1322,-0.1296,-0.1103,-0.079,-0.0614,-0.0472,-0.0315,-0.0316,-0.0252,-0.0247,-0.0253,-0.0313,-0.0313,-0.0313,-0.0313,-0.127,-0.1276,-0.1417,-0.1489,-0.1515,-0.1402,-0.1226,-0.0862,-0.0491,-0.0304,-0.0305,-0.0273,-0.0275,-0.021,-0.0205,-0.0209,-0.0259,-0.0259,-0.0259,-0.1346,-0.1386,-0.1499,-0.1566,-0.1604,-0.1498,-0.1301,-0.0859,-0.0361,-0.0262,-0.0355,-0.0298,-0.025,-0.0253,-0.0148,-0.0143,-0.0146,0,0]}],[{"header":{"parameterUnit":"m.s-1","parameterCategory":2,"la1":30.2992,"la2":30.254,"lo1":-89.0895,"lo2":-89.0443,"dy":0.0025,"dx":0.0025,"nx":19,"ny":19,"refTime":"2026-04-08T09:00:00:Z","depth":"4","parameterNumber":2,"parameterNumberName":"U-component_of_CURRENTS"},"data":[0,0,0,-0.2052,-0.2056,-0.226,-0.2261,-0.2389,-0.239,0,0,0,0,0,0,0,0,0,0,0,-0.1984,-0.1986,-0.2051,-0.2056,-0.226,-0.2261,-0.2389,-0.239,0,0,0,0,0,0,0,0,0,0,0,-0.1983,-0.1985,-0.1987,-0.2057,-0.226,-0.2261,-0.2389,-0.2268,0,0,0,0,0,0,0,0,0,0,-0.2086,-0.2044,-0.1985,-0.1987,-0.2058,-0.226,-0.2261,-0.2263,-0.2275,-0.2258,0,-0.2302,0,-0.2345,-0.2395,-0.2395,0,0,0,-0.2057,-0.2035,-0.2088,-0.1987,-0.206,-0.226,-0.2168,-0.2271,-0.2284,-0.2273,-0.2304,-0.231,-0.2347,-0.2396,-0.2396,-0.2506,-0.2507,0,0,-0.2046,-0.2018,-0.208,-0.2097,-0.2127,-0.2162,-0.2175,-0.2281,-0.2297,-0.2305,-0.2314,-0.2349,-0.2396,-0.2397,-0.2506,-0.2506,0,0,0,-0.2013,-0.201,-0.2065,-0.209,-0.2137,-0.2168,-0.2183,-0.2293,-0.2311,-0.2316,-0.2351,-0.2397,-0.2398,-0.2505,-0.2506,-0.2563,0,0,0,-0.2006,-0.1992,-0.206,-0.2045,-0.2136,-0.2236,-0.2192,-0.2304,-0.2318,-0.235,-0.2397,-0.2399,-0.2504,-0.2505,-0.256,-0.2558,0,0,0,-0.1972,-0.1988,-0.2016,-0.2043,-0.2132,-0.2236,-0.2262,-0.2309,-0.2338,-0.2396,-0.2399,-0.2504,-0.2505,-0.2557,-0.2555,-0.2564,0,0,0,-0.193,-0.1975,-0.2016,-0.2086,-0.213,-0.2255,-0.2262,-0.2365,-0.242,-0.2397,-0.2504,-0.2506,-0.2557,-0.2552,-0.2562,-0.2249,0,0,0,-0.1956,-0.1978,-0.202,-0.2061,-0.2174,-0.2226,-0.2342,-0.2419,-0.2429,-0.2458,-0.2463,-0.2561,-0.2554,-0.2564,-0.2335,0,0,0,0,-0.2008,-0.2038,-0.2081,-0.2163,-0.2255,-0.2347,-0.2431,-0.2461,-0.2534,-0.247,-0.2574,-0.2567,-0.2571,-0.2384,-0.2513,-0.2512,-0.2512,-0.2512,-0.2512,-0.1978,-0.2049,-0.2124,-0.2225,-0.2311,-0.244,-0.2506,-0.2559,-0.2576,-0.2619,-0.2625,-0.2682,-0.2489,-0.265,-0.2651,-0.2651,-0.2651,-0.2652,-0.2652,-0.1989,-0.2016,-0.2139,-0.2239,-0.2354,-0.246,-0.2582,-0.2623,-0.2689,-0.2687,-0.2689,-0.2471,-0.2658,-0.2656,-0.2656,-0.2655,-0.2654,-0.2654,-0.2654,-0.1924,-0.1944,-0.2045,-0.2187,-0.233,-0.2476,-0.2554,-0.2668,-0.2719,-0.2746,-0.2534,-0.2707,-0.2688,-0.2759,-0.2759,-0.2759,-0.2759,-0.2759,-0.2759,-0.1788,-0.189,-0.1958,-0.2132,-0.2221,-0.236,-0.2552,-0.2585,-0.2684,-0.2544,-0.2761,-0.2717,-0.2713,-0.2694,-0.276,-0.276,-0.276,-0.276,-0.2759,-0.1659,-0.1731,-0.1803,-0.1892,-0.2078,-0.2155,-0.2393,-0.2406,-0.241,-0.2342,-0.2424,-0.244,-0.2379,-0.2383,-0.2349,-0.2316,-0.2312,-0.2308,0,-0.154,-0.1591,-0.1649,-0.1727,-0.18,-0.2011,-0.1962,-0.2057,-0.2142,-0.2069,-0.2391,-0.2483,-0.2493,-0.2424,-0.2422,-0.238,0,0,0,-0.1435,-0.148,-0.1459,-0.1583,-0.1657,-0.1751,-0.1932,-0.1881,-0.2147,-0.2073,-0.2212,-0.2237,-0.2566,-0.2763,-0.2707,-0.2703,-0.2667,0,0]},{"header":{"parameterUnit":"m.s-1","parameterCategory":2,"la1":30.2992,"la2":30.254,"lo1":-89.0895,"lo2":-89.0443,"dy":0.0025,"dx":0.0025,"nx":19,"ny":19,"refTime":"2026-04-08T09:00:00:Z","depth":"4","parameterNumber":3,"parameterNumberName":"V-component_of_CURRENTS"},"data":[0,0,0,-0.0355,-0.0354,-0.0287,-0.0287,-0.0136,-0.0135,0,0,0,0,0,0,0,0,0,0,0,-0.0379,-0.0379,-0.0355,-0.0354,-0.0287,-0.0287,-0.0137,-0.0135,0,0,0,0,0,0,0,0,0,0,0,-0.0379,-0.0379,-0.0379,-0.0354,-0.0287,-0.0287,-0.0137,-0.0199,0,0,0,0,0,0,0,0,0,0,-0.027,-0.0314,-0.0379,-0.0379,-0.0354,-0.0288,-0.0287,-0.0202,-0.0195,-0.0154,0,-0.0159,0,-0.015,-0.0125,-0.0125,0,0,0,-0.0334,-0.032,-0.03,-0.0379,-0.0353,-0.0288,-0.0312,-0.0198,-0.019,-0.0144,-0.0157,-0.0152,-0.0148,-0.0124,-0.0124,-0.0023,-0.0022,0,0,-0.0338,-0.0361,-0.0306,-0.0295,-0.0354,-0.0314,-0.031,-0.0194,-0.0192,-0.0157,-0.0148,-0.0145,-0.0123,-0.0122,-0.0023,-0.0023,0,0,0,-0.0362,-0.0364,-0.0347,-0.0301,-0.0298,-0.0313,-0.0308,-0.0197,-0.0192,-0.0147,-0.0143,-0.0122,-0.0121,-0.0023,-0.0023,-0.0126,0,0,0,-0.0363,-0.0379,-0.0349,-0.0361,-0.0301,-0.0258,-0.0314,-0.02,-0.0187,-0.0144,-0.0122,-0.0119,-0.0023,-0.0023,-0.0123,-0.0174,0,0,0,-0.0378,-0.038,-0.0378,-0.0363,-0.0343,-0.026,-0.0247,-0.0197,-0.0185,-0.0125,-0.0119,-0.0023,-0.0023,-0.0121,-0.0169,-0.0151,0,0,0,-0.0394,-0.042,-0.0379,-0.0403,-0.0344,-0.032,-0.0248,-0.0216,-0.0173,-0.0122,-0.0023,-0.0023,-0.012,-0.0166,-0.0149,-0.0172,0,0,0,-0.0439,-0.0426,-0.044,-0.0402,-0.0415,-0.0327,-0.0314,-0.0227,-0.0153,-0.0052,-0.005,-0.0124,-0.0169,-0.0151,-0.0169,0,0,0,0,-0.0461,-0.0478,-0.0472,-0.0469,-0.0428,-0.0389,-0.0299,-0.0243,-0.0159,-0.013,-0.0094,-0.0118,-0.0104,-0.0109,-0.0022,-0.0022,-0.0022,-0.0022,-0.0022,-0.0545,-0.0528,-0.0559,-0.0533,-0.051,-0.0421,-0.0373,-0.0273,-0.0201,-0.0176,-0.0181,-0.0209,-0.0219,-0.015,-0.015,-0.0151,-0.0151,-0.0151,-0.0152,-0.063,-0.0651,-0.0629,-0.0658,-0.06,-0.0574,-0.0439,-0.0377,-0.0279,-0.023,-0.021,-0.0192,-0.0161,-0.0159,-0.0158,-0.0157,-0.0156,-0.0155,-0.0155,-0.0689,-0.0698,-0.072,-0.0757,-0.0753,-0.0674,-0.0636,-0.0517,-0.0379,-0.0364,-0.031,-0.0254,-0.0268,-0.0341,-0.0341,-0.0341,-0.0341,-0.0341,-0.0341,-0.0738,-0.0757,-0.0826,-0.0856,-0.0887,-0.0871,-0.0746,-0.066,-0.0508,-0.0421,-0.0384,-0.0272,-0.0266,-0.0275,-0.0344,-0.0344,-0.0343,-0.0343,-0.0343,-0.0798,-0.0816,-0.0921,-0.0976,-0.1035,-0.1012,-0.0914,-0.071,-0.0615,-0.0504,-0.0418,-0.0414,-0.0366,-0.0356,-0.0368,-0.0467,-0.0467,-0.0468,0,-0.0834,-0.0851,-0.0995,-0.109,-0.1136,-0.1084,-0.0964,-0.083,-0.0626,-0.0625,-0.0616,-0.0529,-0.0521,-0.0477,-0.0469,-0.0489,0,0,0,-0.0869,-0.0915,-0.1017,-0.1117,-0.1175,-0.1018,-0.0922,-0.0846,-0.0668,-0.0559,-0.0482,-0.0478,-0.0454,-0.0351,-0.0265,-0.0258,-0.0268,0,0]}]]